This is the latest recevied weather packets stored in our database for station/object NC0S. If no packets are shown the sender has not sent any weather packets the latest 10 day(s).
| Time | Temp. | Humidity | Pressure | Rain* | Wind** | Luminosity | Snow |
|---|---|---|---|---|---|---|---|
| 1777652432 | 16.67° C | 38% | 1020.1 hPa | 0 mm | - | - | - |
| 1777651833 | 16.67° C | 37% | 1020.1 hPa | 0 mm | - | - | - |
| 1777649432 | 16.11° C | 38% | 1020.1 hPa | 0 mm | - | - | - |
| 1777648232 | 16.11° C | 41% | 1020.1 hPa | 0 mm | - | - | - |
| 1777644632 | 14.44° C | 44% | 1020.2 hPa | 0 mm | - | - | - |
| 1777641632 | 11.11° C | 59% | 1020.5 hPa | 0 mm | - | - | - |
| 1777639835 | 6.11° C | 83% | 1020.2 hPa | 0 mm | - | - | - |
| 1777635639 | 2.22° C | 92% | 1020.1 hPa | 0 mm | - | - | - |
| 1777633840 | 2.22° C | 92% | 1020 hPa | 0 mm | - | - | - |
| 1777628442 | 3.33° C | 87% | 1019.9 hPa | 0 mm | - | - | - |
| 1777627242 | 3.89° C | 86% | 1020 hPa | 0 mm | - | - | - |
| 1777626641 | 3.89° C | 86% | 1019.9 hPa | 0 mm | - | - | - |
| 1777623663 | 5° C | 81% | 1020.2 hPa | 0 mm | - | - | - |
| 1777621843 | 5.56° C | 76% | 1020.7 hPa | 0 mm | - | - | - |
| 1777619442 | 7.22° C | 67% | 1020.5 hPa | 0 mm | - | - | - |
| 1777617643 | 7.78° C | 66% | 1020.7 hPa | 0 mm | - | - | - |
| 1777617042 | 7.78° C | 66% | 1020.8 hPa | 0 mm | - | - | - |
| 1777615242 | 8.89° C | 61% | 1020.8 hPa | 0 mm | - | - | - |
| 1777613442 | 9.44° C | 60% | 1020.5 hPa | 0 mm | - | - | - |
| 1777612842 | 9.44° C | 59% | 1020.4 hPa | 0 mm | - | - | - |
| 1777611643 | 10° C | 58% | 1020.3 hPa | 0 mm | - | - | - |
| 1777603243 | 12.22° C | 55% | 1019.2 hPa | 0 mm | - | - | - |
| 1777600242 | 13.33° C | 53% | 1018.5 hPa | 0 mm | - | - | - |
| 1777594842 | 16.11° C | 49% | 1017.1 hPa | 0 mm | - | - | - |
| 1777583443 | 18.89° C | 48% | 1017 hPa | 0 mm | - | - | - |
* Rain latest hour (hover to see other rain measurements)
** Current wind speed in m/s (hover to see current wind gust speed)